Meteo Giornale » Osservazioni meteo Svizzera » Alpnach

ore: 16:50 - Osservazioni Meteo Alpnach
Lat. 46° 57' N Lon. 8° 17' E Alt. 444 metri s.l.m.

coperto_pioggia Europe/Zurich

14 °C

Pioggia

Temp. 24 Ore

10 °C

22 °C

Sud

14.8 Km/h

Dew point 12 °C

Umidità 87 %

Visibilità  4 Km

Il sole sorge alle ore 05:39

Il sole tramonta alle ore 21:08

Data e Ora Cielo e Fenomeni T °C DP °C Um. % Pres. hPa Vis. km Vento km/h
Oggi h: 16:50 coperto_pioggia Pioggia 14 12 87 1017 4 S 14.8
Oggi h: 16:20 coperto_pioggia Pioggia 16 13 82 1016 10 O 7.4
Oggi h: 15:50 molto_nuvoloso Molto Nuvoloso 18 13 72 1015 10 NE 9.3
Oggi h: 15:20 molto_nuvoloso Molto Nuvoloso 18 13 72 1016 10 NE 7.4
Oggi h: 14:50 nuvoloso Nuvoloso 18 12 67 1016 10 E/NE 7.4
Oggi h: 14:20 sereno Sereno 17 13 77 1016 6 N/NE 7.4
Oggi h: 13:50 coperto_pioggia Pioggia Debole 16 14 87 1017 10 N 3.7
Oggi h: 13:20 coperto_pioggia Pioggia Debole 15 12 82 1017 10 N 1.8
Oggi h: 12:50 coperto_pioggia Pioggia Debole 14 13 93 1017 10 N 0
Oggi h: 12:20 nuvoloso_piovaschi Rovescio di Pioggia 14 12 87 1017 7 S/SO 7.4
Oggi h: 11:50 nuvoloso_piovaschi Debole Rovescio di Pioggia 14 12 87 1017 10 S 13
Oggi h: 11:20 nuvoloso_piovaschi Debole Rovescio di Pioggia 15 11 76 1017 10 N 3.7
Oggi h: 10:50 nuvoloso_piovaschi Debole Rovescio di Pioggia 16 12 77 1017 10 N 0
Oggi h: 10:20 coperto Coperto 15 11 76 1016 10 N 0
Oggi h: 09:50 coperto Coperto 15 11 76 1016 10 N 0
Oggi h: 09:20 coperto Coperto 14 11 82 1016 10 N 0
Oggi h: 08:50 molto_nuvoloso Molto Nuvoloso 14 11 82 1016 10 N 0
Oggi h: 08:20 molto_nuvoloso Molto Nuvoloso 13 11 87 1016 10 N 0
Oggi h: 07:50 molto_nuvoloso Molto Nuvoloso 13 11 87 1016 10 N 0
Oggi h: 07:20 molto_nuvoloso Molto Nuvoloso 12 10 87 1015 10 N 0
Oggi h: 06:50 molto_nuvoloso Molto Nuvoloso 12 10 87 1015 10 N 0
Oggi h: 06:20 molto_nuvoloso Molto Nuvoloso 11 10 93 1015 10 N 0
Oggi h: 05:50 molto_nuvoloso Molto Nuvoloso 11 9 87 1015 10 N 5.5
Oggi h: 05:20 coperto Coperto 12 9 81 1015 10 N 3.7
Oggi h: 04:50 coperto Coperto 12 10 87 1015 10 N 3.7
Oggi h: 04:20 coperto Coperto 12 10 87 1015 10 N 3.7
Oggi h: 03:50 molto_nuvoloso Molto Nuvoloso 11 10 93 1015 10 N 3.7
Oggi h: 03:20 coperto Coperto 12 10 87 1015 10 N 3.7
Oggi h: 02:50 coperto Coperto 12 10 87 1015 10 N 1.8
Oggi h: 02:20 coperto Coperto 11 9 87 1015 10 N 5.5
Oggi h: 01:20 poco_nuvoloso Poco Nuvoloso 10 9 93 1015 10 N 5.5
Oggi h: 00:50 sereno Sereno 11 9 87 1015 10 N 5.5
Oggi h: 00:20 sereno Sereno 12 9 81 1015 10 N 5.5
Ieri h: 23:50 sereno Sereno 13 9 76 1015 10 N 5.5
Ieri h: 23:20 poco_nuvoloso Poco Nuvoloso 13 10 81 1014 10 N 3.7
Ieri h: 22:20 poco_nuvoloso Poco Nuvoloso 14 10 76 1014 10 N 0
Ieri h: 21:50 nuvoloso Nuvoloso 15 10 72 1014 10 N 3.7
Ieri h: 20:50 molto_nuvoloso Molto Nuvoloso 16 11 72 1013 10 N 0
Ieri h: 19:50 sereno Sereno 18 11 63 1013 10 N 1.8
Ieri h: 19:20 sereno Sereno 19 11 59 1013 10 N 5.5
Ieri h: 18:50 sereno Sereno 20 9 49 1013 10 N 3.7
Ieri h: 18:20 poco_nuvoloso Poco Nuvoloso 22 9 43 1013 10 N 5.5
Ieri h: 17:50 nuvoloso Nuvoloso 22 9 43 1014 10 N 3.7